NOAA 16 DEB, 41085

Orbit data source: Space-Track

NOAA 16 DEB, 41085 is space debris in SSO originally from a launch on Thu, 21 Sep 2000 UTC launched from the Air Force Western Test Range (AFWTR). Debris objects in space refer to the collection of defunct objects orbiting the Earth. Examples of debris include non-operational satellites, rocket bodies, and fragments generated from explosions, collisions, or faulty payload assembly.

Loading next visibility...
Identifier
41085, 2000-055AU
Orbit
SSO
Country
Flag of USUS
Related business
Manufacturer
Unknown
Mission
Spacecraft
Bus & Motor
Unknown
Mass
Unknown
Launch date (UTC)
2000-09-21 (25 years ago)
Launch vehicle
Unknown
Launch site
Air Force Western Test Range (AFWTR)
Object type
Payload
Rocket body
Debris
Shape & HBR
Unknown shape, 0.1 m
Radar Cross Section
Small (<0.1 m²)

Expand to show TLE details & history
Last TLE update: 1 day ago

TLE from 1 day ago
0 NOAA 16 DEB
1 41085U 00055AU  25292.22881227  .00003208  00000-0  14389-2 0  9990
2 41085  98.7130  19.2519 0019639 220.9494 139.0210 14.23069882511986
Epoch: 2025-10-19T05:29Z
TLE epoch observation values (Epoch: 2025-10-19T05:29:29.380Z)
Latitude
-0.00001°
Longitude
-91.069°
Altitude
828.587 km
Speed
7.433 km/s
True Right ascension
01h 17m 00s
True Declination
0° 00' 00"
Sunlit
Object was in full shadow at epoch
Visualization orbit readout
Latitude
Unknown
Longitude
Unknown
Altitude
Unknown
Speed
Unknown
Apparent Right ascension
Unknown
Apparent Declination
Unknown
Sunlit
N/A
Visualization observer readout
Local Sidereal Time
05:32:39
Azimuth
Unknown
Elevation
Unknown
Doppler factor
Unknown
Orbital elements
Apogee altitude
826.265 km
Perigee altitude
798.023 km
Semi-major axis
7,190.281 km
Eccentricity
0.00196
Inclination
98.713°
RAAN
19.2519°
Arg. of periapsis
220.9494°
True anomaly
139.16831°
Mean anomaly
139.021°
Eccentric anomaly
139.09468°
Mean motion
3.55979 °/min
Orbital period
101.13 mins
BSTAR
0.0014389
Loading maneuver chart data...
Computing Atmospheric mass density...
Loading historical data...
Loading historical data...
Loading historical data...
Loading historical data...
Loading historical data...
Loading historical data...
Loading historical data...

Documentation

Showing up to 5 results
|